Terug naar catalogus

IRIDIUM 33 DEB

ActiefPO
NORAD 34651·DEBRIS·🇺🇸 United States

Gelanceerd Sep 14, 1997 vanaf Baikonur Cosmodrome

Loading…

Volgende Passages (komende 24 uur)

TLE

VersSource: Space-Track

Epoch: Sep 14, 2026, 02:26 UTC

1 34651U 97051KC  26257.10203931  .00002953  00000-0  10525-2 0  9996
2 34651  86.2834  22.9225 0131093  37.3672 323.6548 14.29228692898257

Volg IRIDIUM 33 DEB in realtime met AllMySat

Download on the App Store